User: anonymous
Location: Caltech
(34.1382°N, 118.1253°W)
Time: 04:06:59
(UTC-07:00)
Language:

Gbstr 26 Del rocket - Orbit

View from above orbital plane
View from above orbital plane
View from above satellite
View from above satellite

Ground track
Ground track

The orbit data is extracted from the following two-line orbital elements,

1 25876U 99041E   14210.35750299  .00000165  00000-0  69013-4 0  4270
2 25876 051.7663 150.5437 0540091 199.5868 309.9413 14.02139201766638
Epoch (UTC): 29 July 2014 08:34:48
Eccentricity: 0.0540091
inclination: 51.7663°
perigee height: 494 km
apogee height: 1279 km
right ascension of ascending node: 150.5437°
argument of perigee: 199.5868°
revolutions per day: 14.02139201
mean anomaly at epoch: 309.9413°
orbit number at epoch: 76663

The dashed part of the orbit path shows where the satellite is in the earth's shadow,  

DLR